When you browse on this site, cookies collect data to enhance your experience and personalize the content and advertising you see.
Visit our Privacy Policy to learn more. By continuing to use the site, you agree to this use of cookies and data.
  • In Lithuania
  • List of Countries
  • For 7 days
  • Water Temperature
  • Weather Map
  • Weather Widgets
  • user-avatar
    Login

    Hourly Weather São Paulo

    Today, 23 September, Monday

    Time Temperature Precipitation Wind Pressure Humidity
    00:00 +14°C° 0 mm 6 mps 705 mmHg 82%
    01:00 +13°C° 0 mm 6 mps 704 mmHg 81%
    02:00 +13°C° 0 mm 6 mps 704 mmHg 81%
    03:00 +13°C° 0 mm 5 mps 704 mmHg 81%
    04:00 +13°C° 0 mm 6 mps 704 mmHg 81%
    05:00 +13°C° 0 mm 6 mps 704 mmHg 80%
    06:00 +13°C° 0 mm 6 mps 704 mmHg 80%
    07:00 +14°C° 0 mm 6 mps 704 mmHg 76%
    08:00 +14°C° 0 mm 6 mps 705 mmHg 72%
    09:00 +15°C° 0 mm 6 mps 705 mmHg 68%
    10:00 +16°C° 0 mm 6 mps 706 mmHg 65%
    11:00 +16°C° 0 mm 6 mps 706 mmHg 62%
    12:00 +17°C° 0 mm 6 mps 706 mmHg 59%
    13:00 +17°C° 0 mm 6 mps 705 mmHg 60%
    14:00 +17°C° 0 mm 6 mps 705 mmHg 61%
    15:00 +17°C° 0 mm 6 mps 704 mmHg 62%
    16:00 +16°C° 0 mm 5 mps 704 mmHg 66%
    17:00 +15°C° 0 mm 5 mps 704 mmHg 71%
    18:00 +14°C° 0 mm 5 mps 704 mmHg 75%
    19:00 +14°C° 0 mm 5 mps 704 mmHg 77%
    20:00 +14°C° 0 mm 4 mps 704 mmHg 78%
    21:00 +14°C° 0 mm 4 mps 705 mmHg 79%
    22:00 +13°C° 0 mm 4 mps 704 mmHg 79%
    23:00 +13°C° 0 mm 3 mps 704 mmHg 79%

    Tomorrow, 24 September, Tuesday

    Time Temperature Precipitation Wind Pressure Humidity
    00:00 +13°C° 0 mm 3 mps 704 mmHg 79%
    01:00 +13°C° 0 mm 3 mps 703 mmHg 79%
    02:00 +12°C° 0 mm 3 mps 703 mmHg 79%
    03:00 +12°C° 0 mm 3 mps 703 mmHg 79%
    04:00 +12°C° 0 mm 3 mps 703 mmHg 79%
    05:00 +13°C° 0 mm 2 mps 702 mmHg 79%
    06:00 +13°C° 0 mm 2 mps 702 mmHg 78%
    07:00 +14°C° 0 mm 2 mps 703 mmHg 71%
    08:00 +16°C° 0 mm 2 mps 703 mmHg 63%
    09:00 +18°C° 0 mm 3 mps 704 mmHg 56%
    10:00 +19°C° 0 mm 2 mps 703 mmHg 53%
    11:00 +20°C° 0 mm 2 mps 703 mmHg 51%
    12:00 +21°C° 0 mm 2 mps 703 mmHg 49%
    13:00 +21°C° 0 mm 2 mps 703 mmHg 53%
    14:00 +20°C° 0 mm 3 mps 702 mmHg 57%
    15:00 +20°C° 0 mm 4 mps 702 mmHg 62%
    16:00 +19°C° 0 mm 3 mps 701 mmHg 66%
    17:00 +18°C° 0 mm 3 mps 701 mmHg 70%
    18:00 +17°C° 0 mm 3 mps 701 mmHg 75%
    19:00 +17°C° 0 mm 3 mps 701 mmHg 77%
    20:00 +16°C° 0 mm 3 mps 701 mmHg 80%
    21:00 +16°C° 0 mm 2 mps 702 mmHg 83%
    22:00 +16°C° 0 mm 2 mps 701 mmHg 83%
    23:00 +16°C° 0 mm 2 mps 701 mmHg 84%

    Day after tomorrow, 25 September, Wednesday

    Time Temperature Precipitation Wind Pressure Humidity
    00:00 +16°C° 0 mm 2 mps 701 mmHg 84%
    01:00 +16°C° 0.3 mm 2 mps 701 mmHg 85%
    02:00 +16°C° 0.3 mm 2 mps 700 mmHg 86%
    03:00 +15°C° 0.3 mm 2 mps 700 mmHg 87%
    04:00 +16°C° 0.4 mm 2 mps 700 mmHg 87%
    05:00 +16°C° 0.4 mm 2 mps 700 mmHg 88%
    06:00 +16°C° 0.4 mm 2 mps 700 mmHg 88%
    07:00 +16°C° 1.1 mm 2 mps 700 mmHg 87%
    08:00 +16°C° 1.1 mm 2 mps 700 mmHg 86%
    09:00 +17°C° 1.1 mm 2 mps 701 mmHg 84%
    10:00 +17°C° 1 mm 2 mps 701 mmHg 85%
    11:00 +18°C° 1 mm 1 mps 700 mmHg 85%
    12:00 +19°C° 1 mm 1 mps 700 mmHg 85%
    13:00 +19°C° 2.1 mm 1 mps 700 mmHg 85%
    14:00 +19°C° 2.1 mm 1 mps 699 mmHg 86%
    15:00 +19°C° 2.1 mm 1 mps 699 mmHg 86%
    16:00 +19°C° 1.3 mm 1 mps 699 mmHg 88%
    17:00 +19°C° 1.3 mm 1 mps 699 mmHg 90%
    18:00 +18°C° 1.3 mm 1 mps 699 mmHg 92%
    19:00 +18°C° 2.6 mm 1 mps 699 mmHg 92%
    20:00 +18°C° 2.6 mm 1 mps 699 mmHg 93%
    21:00 +18°C° 2.6 mm 1 mps 699 mmHg 93%
    22:00 +18°C° 2.4 mm 1 mps 699 mmHg 93%
    23:00 +17°C° 2.4 mm 2 mps 699 mmHg 93%

    26 September, Thursday

    Time Temperature Precipitation Wind Pressure Humidity
    00:00 +17°C° 2.4 mm 2 mps 699 mmHg 93%
    01:00 +17°C° 1.9 mm 2 mps 698 mmHg 93%
    02:00 +17°C° 1.9 mm 2 mps 698 mmHg 93%
    03:00 +18°C° 1.9 mm 1 mps 697 mmHg 93%
    04:00 +18°C° 0.4 mm 1 mps 698 mmHg 92%
    05:00 +18°C° 0.4 mm 1 mps 698 mmHg 91%
    06:00 +18°C° 0.4 mm 1 mps 698 mmHg 90%
    07:00 +18°C° 1 mm 1 mps 698 mmHg 90%
    08:00 +18°C° 1 mm 1 mps 698 mmHg 91%
    09:00 +18°C° 1 mm 1 mps 698 mmHg 92%
    10:00 +18°C° 0.8 mm 1 mps 698 mmHg 91%
    11:00 +18°C° 0.8 mm 1 mps 699 mmHg 90%
    12:00 +17°C° 0.8 mm 2 mps 699 mmHg 89%
    13:00 +18°C° 0.2 mm 1 mps 698 mmHg 88%
    14:00 +19°C° 0.2 mm 1 mps 698 mmHg 87%
    15:00 +19°C° 0.2 mm 1 mps 697 mmHg 85%
    16:00 +19°C° 0.1 mm 1 mps 698 mmHg 85%
    17:00 +19°C° 0.1 mm 1 mps 698 mmHg 85%
    18:00 +19°C° 0.1 mm 1 mps 698 mmHg 85%
    19:00 +18°C° 0 mm 1 mps 698 mmHg 87%
    20:00 +18°C° 0 mm 1 mps 699 mmHg 88%
    21:00 +18°C° 0 mm 1 mps 699 mmHg 90%
    22:00 +18°C° 0 mm 1 mps 699 mmHg 89%
    23:00 +18°C° 0 mm 1 mps 699 mmHg 88%

    27 September, Friday

    Time Temperature Precipitation Wind Pressure Humidity
    00:00 +17°C° 0 mm 2 mps 699 mmHg 88%
    01:00 +17°C° 0 mm 2 mps 699 mmHg 88%
    02:00 +17°C° 0 mm 2 mps 699 mmHg 88%
    03:00 +17°C° 0 mm 2 mps 698 mmHg 88%
    04:00 +17°C° 0 mm 3 mps 699 mmHg 89%
    05:00 +17°C° 0 mm 3 mps 699 mmHg 89%
    06:00 +17°C° 0 mm 3 mps 699 mmHg 89%
    07:00 +17°C° 0.1 mm 3 mps 699 mmHg 88%
    08:00 +17°C° 0.1 mm 3 mps 700 mmHg 87%
    09:00 +17°C° 0.1 mm 3 mps 700 mmHg 85%
    10:00 +18°C° 0.1 mm 3 mps 700 mmHg 79%
    11:00 +20°C° 0.1 mm 3 mps 700 mmHg 73%
    12:00 +21°C° 0.1 mm 4 mps 700 mmHg 67%
    13:00 +21°C° 0 mm 4 mps 700 mmHg 67%
    14:00 +21°C° 0 mm 4 mps 700 mmHg 67%
    15:00 +21°C° 0 mm 4 mps 699 mmHg 68%
    16:00 +20°C° 0 mm 4 mps 699 mmHg 72%
    17:00 +19°C° 0 mm 4 mps 699 mmHg 77%
    18:00 +18°C° 0 mm 4 mps 699 mmHg 82%
    19:00 +18°C° 0 mm 4 mps 700 mmHg 83%
    20:00 +17°C° 0 mm 4 mps 700 mmHg 84%
    21:00 +17°C° 0 mm 4 mps 700 mmHg 85%
    22:00 +17°C° 0 mm 4 mps 700 mmHg 86%
    23:00 +17°C° 0 mm 3 mps 700 mmHg 87%

    28 September, Saturday

    Time Temperature Precipitation Wind Pressure Humidity
    00:00 +17°C° 0 mm 3 mps 700 mmHg 88%
    01:00 +17°C° 0 mm 3 mps 700 mmHg 88%
    02:00 +17°C° 0 mm 3 mps 699 mmHg 88%
    03:00 +17°C° 0 mm 3 mps 699 mmHg 88%
    04:00 +17°C° 0 mm 3 mps 699 mmHg 88%
    05:00 +17°C° 0 mm 3 mps 699 mmHg 88%
    06:00 +16°C° 0 mm 2 mps 699 mmHg 89%
    07:00 +17°C° 0 mm 2 mps 700 mmHg 84%
    08:00 +18°C° 0 mm 2 mps 700 mmHg 79%
    09:00 +19°C° 0 mm 2 mps 700 mmHg 74%
    10:00 +21°C° 0 mm 2 mps 700 mmHg 69%
    11:00 +22°C° 0 mm 3 mps 701 mmHg 64%
    12:00 +25°C° 0 mm 3 mps 701 mmHg 59%
    13:00 +24°C° 0 mm 3 mps 700 mmHg 63%
    14:00 +22°C° 0 mm 3 mps 699 mmHg 67%
    15:00 +22°C° 0 mm 4 mps 698 mmHg 72%
    16:00 +21°C° 0 mm 3 mps 698 mmHg 75%
    17:00 +20°C° 0 mm 3 mps 698 mmHg 78%
    18:00 +19°C° 0 mm 3 mps 698 mmHg 82%
    19:00 +19°C° 0 mm 3 mps 698 mmHg 83%
    20:00 +19°C° 0 mm 3 mps 698 mmHg 84%
    21:00 +18°C° 0 mm 2 mps 699 mmHg 85%
    22:00 +18°C° 0 mm 2 mps 699 mmHg 87%
    23:00 +18°C° 0 mm 2 mps 698 mmHg 88%
    Show more